Location: Buch
(49.7331°N, 12.1098°E)
Time: 09:33:27
(UTC+00:00)

Cosmos 1812 - Pass Details

Date: 12 May 2021
Orbit: 514 x 521 km, 82.5° (Epoch: 14 June)

Event Time Altitude Azimuth Distance (km) Brightness Sun altitude
Exits shadow 20:32:42 - 196° (SSW) 1,809 5.1 -13.8°
Reaches altitude 10° 20:32:50 10° 196° (SSW) 1,755 5.0 -13.8°
Maximum altitude 20:36:40 71° 280° (W) 557 2.9 -14.1°
Drops below altitude 10° 20:40:33 10° 6° (N) 1,770 6.1 -14.5°
Sets 20:42:43 0° 9° (N) 2,663 7.1 -14.7°
